Tracking 32579 objects as of 16-Dec-2025
HD Live streaming from Space Station
objects crossing your sky now

STARLINK-6293

Track STARLINK-6293 now!
10-day predictions
STARLINK-6293 is classified as:


NORAD ID: 57354
Int'l Code: 2023-099AC
Perigee: 565.4 km
Apogee: 567.1 km
Inclination: 43.0 °
Period: 95.8 minutes
Semi major axis: 6937 km
RCS: Unknown
Launch date: July 16, 2023
Source: United States (US)
Launch site: AIR FORCE EASTERN TEST RANGE (AFETR)
Your satellite tracking list
Your tracking list is empty




NASA's NSSDC Master Catalog

Two Line Element Set (TLE):
1 57354U 23099AC  25349.33255673  .00000620  00000-0  60972-4 0  9990
2 57354  43.0049 334.6150 0001268 274.9037  85.1660 15.02526427133576
Source of the keplerian elements: AFSPC